Wind_Speed
8 10 10 11 12 10 9 10 12 12 15 18 23 26 28 31 34 35 36 35 35 32 31 21 23 22 23 25 23 20 22 18 15 21 18 15 19 15 10 10 8 5 9
9 11 12 12 12 11 7 8 10 10 10 11 13 15 16 17 20 23 27 26 25 23 22 21 18 16 14 20 23 26 22 15 11 22 19 15 17 15 12 8 5 6 8
8 9 9 9 9 10 8 6 6 7 6 6 6 9 12 14 15 18 21 22 23 25 26 24 25 22 18 17 21 24 19 19 16 11 11 10 11 11 11 8 7 7 10
6 6 5 4 3 3 4 4 4 4 3 4 5 10 15 17 19 18 18 18 20 22 22 21 19 22 15 8 5 6 10 14 12 14 13 13 12 10 7 8 9 9 8
5 3 1 2 3 4 6 7 7 5 5 5 7 8 10 11 14 15 13 12 14 16 16 17 17 17 15 13 14 14 14 14 18 16 14 15 12 12 10 6 8 10 13
12 9 6 6 4 6 7 8 7 5 5 6 6 8 8 7 8 10 11 16 16 14 16 17 16 16 16 16 16 17 19 15 18 15 14 13 14 14 13 10 10 13 15
13 10 7 11 14 16 14 10 7 7 9 10 9 10 11 10 13 13 13 12 13 13 13 13 13 12 15 16 17 20 21 18 18 18 15 11 9 10 14 15 14 17 16
10 8 11 13 10 11 13 14 12 13 10 11 12 11 11 13 11 10 10 9 8 10 12 13 13 13 16 15 15 15 15 16 17 16 17 16 17 18 18 16 18 19 19
10 10 9 9 5 5 11 17 18 16 11 13 11 12 12 12 12 12 15 13 12 12 8 9 10 10 12 14 12 9 9 11 13 14 16 17 19 18 20 19 17 16 18
12 9 9 9 8 4 5 18 17 16 18 19 17 15 16 14 19 17 16 10 8 8 12 17 17 16 15 16 14 13 13 11 11 15 15 15 16 19 20 22 21 18 19
8 10 10 9 11 3 4 8 12 10 9 7 9 11 11 11 13 17 19 16 11 10 10 9 11 11 14 13 13 15 13 12 14 17 18 16 15 15 16 17 20 22 19
10 10 11 8 10 8 7 8 7 8 8 8 9 9 11 14 16 21 23 22 17 14 14 13 15 13 12 15 18 17 17 18 18 15 15 15 15 15 17 19 21 25 23
11 12 10 10 15 11 9 8 11 10 10 11 12 13 15 14 15 14 14 13 12 14 12 11 12 14 15 17 18 18 17 18 16 16 16 16 17 19 21 24 25 28 33
14 13 12 11 12 12 13 13 14 13 14 16 14 12 11 13 15 16 16 17 16 17 16 15 14 17 20 18 16 17 19 19 16 16 16 17 18 20 22 21 23 24 27
14 13 16 16 16 14 14 13 14 13 13 14 14 14 14 17 18 16 16 15 14 14 13 11 13 13 13 14 14 14 14 13 15 16 17 18 19 20 21 22 24 26 30
14 12 12 12 15 13 16 14 14 17 14 13 11 9 8 5 5 12 10 14 15 14 14 13 14 14 14 13 14 15 15 16 16 16 18 20 22 23 25 27 29 30 32
18 15 14 13 14 14 14 15 16 14 18 17 15 12 10 11 8 10 11 14 19 21 20 17 16 15 15 15 15 16 16 16 16 18 21 23 25 27 29 30 29 33 36
19 19 17 17 16 16 17 17 17 18 19 18 21 19 15 15 16 16 15 12 12 17 18 17 16 16 16 16 17 17 18 18 19 21 23 24 24 24 26 28 30 31 32
22 21 19 20 19 18 19 19 18 18 21 20 20 17 15 14 18 18 19 18 14 15 16 16 17 17 17 17 18 19 20 21 22 21 25 30 32 32 29 27 32 35 34
23 24 22 22 21 20 21 21 21 21 20 18 18 18 18 20 20 22 24 24 21 20 20 20 20 20 19 20 21 21 21 20 20 21 20 18 20 26 25 26 27 31 30
22 23 27 24 23 23 24 23 23 23 22 23 22 21 19 20 17 17 20 22 21 17 17 18 21 22 21 20 20 20 18 14 15 18 19 22 27 30 30 35 33 33 31
25 24 25 28 25 25 25 25 25 25 23 24 24 24 27 28 25 24 23 21 22 22 20 19 20 19 17 17 17 15 13 14 17 20 22 21 22 26 25 25 23 21 17
30 29 30 28 32 32 30 29 29 27 27 27 28 26 20 25 26 27 24 23 22 22 20 14 13 15 16 20 21 29 24 22 22 20 18 18 17 15 16 19 16 14 17
30 28 30 35 38 32 30 29 31 32 31 30 31 32 29 27 26 24 24 24 22 18 18 19 23 23 25 27 26 23 16 16 17 16 16 16 17 17 12 10 12 15 20
27 29 37 33 29 28 30 35 38 33 33 37 38 38 36 34 26 25 25 20 21 27 31 29 29 27 22 19 13 13 16 15 14 14 13 10 8 9 11 13 16 18 21
14 16 23 22 25 28 32 35 27 32 31 28 38 39 34 25 22 21 28 30 29 24 23 20 16 11 9 7 12 14 13 13 11 10 11 8 9 13 14 15 18 20 22
Wind_Direction
323 324 322 315 312 310 306 292 282 272 266 260 259 258 264 255 257 248 235 229 222 222 221 204 197 205 225 205 201 202 200 214 202 163 179 203 194 188 225 216 235 241 275
298 300 300 296 294 298 290 279 281 275 261 256 250 251 250 245 240 233 223 211 197 181 171 171 180 171 178 197 183 184 180 185 180 158 184 222 205 205 225 235 214 230 235
311 308 307 299 287 279 265 246 239 236 245 241 222 217 210 199 185 184 181 176 173 175 170 159 151 149 154 154 171 179 159 151 160 160 186 205 193 224 223 247 274 269 266
335 334 339 346 328 284 273 258 250 232 221 205 195 197 186 175 171 172 179 182 189 191 187 175 168 170 173 153 157 170 172 165 158 178 197 191 201 221 216 241 258 284 271
176 180 27 338 289 263 245 225 207 201 183 176 182 178 189 193 200 193 185 187 193 188 173 147 135 137 141 159 170 183 190 172 174 181 186 196 199 203 225 245 248 252 260
208 212 209 194 213 254 241 213 197 199 178 183 151 146 136 132 155 166 146 137 133 138 135 136 148 167 164 165 170 175 169 172 178 188 194 207 216 210 223 246 254 257 261
229 232 263 282 261 252 248 203 174 182 182 179 167 158 151 148 139 125 126 129 142 147 142 151 149 164 169 175 186 187 188 185 187 196 203 206 223 234 235 238 248 260 262
228 234 277 271 263 262 234 208 185 181 186 182 174 174 169 166 150 141 134 139 146 163 170 174 152 194 187 191 189 189 193 199 206 216 227 231 231 238 250 252 250 256 266
244 263 244 230 218 248 237 206 188 173 172 167 164 168 164 171 168 178 168 167 164 164 180 193 187 186 189 183 193 212 224 229 244 251 257 253 252 251 248 249 254 263 275
251 258 222 227 227 202 283 217 228 221 208 189 202 192 187 175 184 197 193 183 200 199 219 207 200 191 205 206 213 226 237 244 249 260 273 278 258 256 256 256 263 267 271
246 187 194 202 188 246 75 123 148 150 158 145 174 193 195 181 205 193 193 207 219 229 209 228 225 220 222 231 239 243 245 241 243 248 250 259 265 270 279 279 283 278 267
196 201 208 209 194 190 194 184 179 177 186 191 200 204 208 206 206 216 227 232 212 202 226 231 233 242 243 247 246 247 244 242 245 251 251 258 261 261 265 268 270 274 267
187 202 209 225 188 210 189 211 208 210 207 212 211 208 210 223 220 211 200 202 210 223 231 250 249 241 243 256 252 251 251 252 247 248 253 258 262 268 267 268 264 261 266
205 206 193 191 194 207 217 219 219 220 233 225 221 222 219 223 229 222 219 218 224 235 243 241 250 257 255 257 255 247 248 247 245 252 260 267 272 273 271 269 272 277 281
213 222 228 226 218 228 229 230 230 238 241 228 225 223 220 226 228 222 218 221 228 241 230 237 247 249 241 245 243 240 254 256 256 259 267 273 272 275 278 280 280 281 278
226 227 231 228 219 218 221 231 229 238 246 234 240 226 220 229 233 211 208 219 226 229 222 232 242 247 248 246 244 246 246 251 255 263 266 270 275 280 283 283 282 281 282
227 230 221 226 225 224 219 222 228 234 240 246 240 230 225 225 239 224 233 236 231 232 237 242 247 245 247 248 251 253 256 259 263 266 273 278 281 281 283 285 286 287 285
224 226 230 226 231 225 223 226 235 234 231 236 231 228 226 228 235 234 236 241 241 237 233 242 243 245 249 252 254 258 263 268 271 275 279 283 287 290 292 290 287 290 292
224 224 225 228 230 233 234 229 234 235 231 238 231 216 212 221 225 230 232 240 241 242 245 241 243 246 251 257 262 266 269 272 276 283 285 285 286 284 286 286 286 291 294
226 227 224 224 225 228 232 234 234 233 231 238 237 218 216 216 216 224 233 239 239 243 245 249 250 253 257 262 267 271 275 277 275 279 285 290 281 276 282 291 293 291 291
226 231 229 228 230 231 229 231 233 235 234 236 236 239 234 216 212 229 232 229 227 237 242 251 255 256 260 266 274 278 273 277 282 281 281 280 286 286 283 292 293 294 294
226 230 231 227 233 234 232 234 232 237 248 244 241 243 237 234 237 243 245 248 245 245 253 256 256 256 263 274 277 278 280 285 281 279 285 286 287 293 298 300 301 301 299
227 230 233 240 239 237 236 232 234 239 235 237 246 248 250 228 231 236 247 244 248 251 252 245 249 253 261 265 260 263 270 277 285 283 284 293 298 299 303 301 301 297 302
233 236 241 242 237 243 251 237 240 241 243 240 239 242 247 234 238 237 242 244 243 235 231 237 239 236 239 250 263 277 288 281 281 281 283 288 289 300 309 306 295 300 301
234 248 246 249 245 248 242 240 246 248 244 240 242 244 243 250 241 240 234 239 212 216 228 236 243 246 253 260 260 275 281 279 279 286 287 289 311 311 290 298 300 301 302
256 255 233 243 251 255 256 258 252 244 245 255 240 230 237 232 233 246 243 221 227 229 237 242 244 234 256 268 262 266 267 273 277 277 284 290 287 295 297 295 298 301 304
Height
1498 1497 1497 1495 1494 1492 1490 1488 1488 1487 1488 1488 1491 1492 1491 1490 1487 1491 1497 1500 1494 1502 1505 1504 1513 1519 1526 1523 1528 1533 1537 1545 1544 1546 1556 1558 1567 1568 1565 1566 1565 1567 1567
1497 1496 1495 1494 1493 1491 1490 1490 1489 1488 1487 1488 1489 1488 1487 1488 1490 1491 1494 1495 1493 1497 1502 1502 1509 1512 1524 1530 1525 1530 1526 1537 1536 1550 1550 1558 1563 1565 1566 1565 1564 1566 1568
1496 1495 1494 1493 1492 1492 1491 1490 1491 1490 1489 1488 1488 1487 1489 1490 1493 1495 1494 1496 1492 1495 1500 1504 1503 1507 1519 1526 1526 1532 1528 1529 1541 1546 1554 1557 1559 1563 1564 1562 1562 1562 1563
1496 1495 1495 1494 1493 1493 1493 1492 1492 1492 1491 1490 1489 1491 1491 1492 1495 1498 1498 1496 1497 1498 1503 1503 1505 1506 1516 1516 1526 1531 1533 1535 1543 1549 1556 1556 1560 1561 1560 1562 1561 1560 1562
1497 1496 1495 1496 1495 1494 1494 1493 1492 1492 1492 1491 1492 1492 1494 1494 1496 1497 1497 1499 1501 1504 1506 1506 1511 1516 1521 1528 1533 1536 1542 1539 1544 1550 1555 1556 1556 1555 1557 1558 1557 1558 1559
1497 1496 1495 1496 1496 1496 1495 1494 1493 1493 1494 1494 1493 1494 1495 1496 1497 1499 1499 1502 1505 1509 1509 1509 1515 1520 1524 1529 1534 1538 1540 1541 1544 1549 1551 1552 1553 1553 1553 1554 1553 1555 1555
1494 1495 1495 1495 1495 1494 1493 1493 1493 1494 1495 1495 1495 1496 1497 1498 1499 1500 1502 1506 1509 1513 1511 1515 1518 1524 1528 1530 1534 1536 1536 1538 1541 1543 1546 1547 1550 1550 1551 1549 1549 1551 1549
1493 1493 1493 1493 1492 1492 1492 1492 1491 1493 1495 1495 1496 1497 1497 1499 1501 1503 1504 1508 1511 1514 1516 1519 1520 1526 1529 1531 1533 1534 1535 1537 1541 1541 1542 1544 1546 1545 1545 1546 1545 1544 1543
1491 1491 1491 1491 1491 1491 1491 1491 1492 1492 1493 1495 1495 1497 1499 1500 1503 1505 1508 1511 1513 1515 1517 1520 1522 1526 1527 1529 1531 1534 1536 1536 1537 1537 1539 1539 1539 1539 1540 1541 1541 1540 1538
1489 1489 1490 1489 1490 1491 1489 1489 1490 1492 1493 1494 1496 1498 1499 1502 1504 1507 1508 1510 1514 1515 1517 1517 1520 1522 1525 1527 1529 1531 1532 1533 1534 1533 1534 1533 1532 1532 1534 1533 1534 1533 1532
1486 1488 1489 1489 1491 1491 1490 1489 1490 1491 1492 1494 1495 1497 1500 1502 1505 1507 1509 1510 1513 1513 1515 1516 1517 1520 1523 1524 1525 1527 1529 1530 1531 1531 1530 1530 1530 1529 1528 1526 1525 1526 1525
1485 1487 1488 1488 1490 1492 1492 1491 1492 1494 1495 1496 1498 1499 1500 1502 1503 1505 1506 1507 1509 1511 1513 1515 1518 1519 1520 1521 1522 1523 1524 1525 1525 1525 1525 1525 1525 1524 1524 1524 1522 1517 1516
1484 1486 1487 1487 1488 1491 1491 1491 1493 1494 1495 1496 1497 1499 1500 1500 1501 1502 1503 1505 1507 1508 1510 1512 1513 1515 1516 1517 1516 1517 1518 1519 1520 1520 1518 1519 1519 1519 1518 1516 1516 1514 1510
1482 1484 1486 1486 1488 1489 1490 1490 1491 1492 1493 1494 1494 1495 1497 1499 1499 1501 1502 1503 1505 1506 1508 1509 1510 1511 1512 1512 1511 1512 1512 1513 1515 1515 1515 1515 1514 1514 1514 1512 1510 1507 1502
1480 1481 1482 1483 1485 1487 1488 1489 1489 1489 1489 1490 1491 1492 1494 1494 1494 1496 1499 1501 1502 1503 1506 1508 1508 1508 1508 1509 1509 1510 1510 1510 1511 1511 1510 1510 1511 1510 1508 1505 1502 1500 1497
1476 1478 1479 1479 1480 1482 1483 1485 1485 1486 1487 1488 1489 1490 1490 1491 1493 1495 1497 1499 1500 1502 1503 1505 1505 1505 1506 1506 1506 1507 1508 1508 1507 1507 1507 1507 1505 1502 1500 1498 1497 1494 1491
1473 1474 1475 1476 1477 1479 1480 1481 1482 1483 1484 1485 1486 1487 1489 1490 1491 1492 1494 1495 1497 1498 1499 1501 1501 1502 1502 1502 1503 1503 1502 1502 1502 1502 1502 1500 1497 1495 1493 1492 1489 1487 1483
1468 1470 1471 1472 1472 1473 1475 1476 1478 1479 1479 1479 1479 1481 1483 1486 1487 1489 1490 1492 1492 1493 1494 1496 1497 1497 1497 1497 1497 1497 1497 1497 1496 1495 1493 1491 1490 1489 1486 1484 1482 1479 1474
1463 1464 1465 1466 1467 1468 1469 1471 1472 1472 1473 1473 1474 1475 1477 1479 1481 1484 1486 1487 1489 1490 1490 1491 1492 1492 1492 1492 1492 1491 1490 1489 1488 1486 1486 1485 1483 1481 1479 1477 1473 1470 1466
1457 1458 1459 1459 1460 1462 1463 1463 1465 1465 1466 1467 1468 1468 1470 1472 1474 1475 1476 1479 1482 1483 1484 1484 1484 1484 1485 1485 1484 1483 1483 1482 1482 1479 1480 1479 1476 1474 1471 1469 1464 1461 1457
1449 1451 1453 1455 1454 1455 1456 1457 1458 1459 1459 1460 1462 1463 1464 1464 1468 1471 1471 1470 1472 1474 1475 1477 1477 1477 1478 1478 1478 1477 1476 1475 1475 1475 1475 1472 1469 1465 1462 1458 1456 1452 1448
1442 1443 1444 1446 1449 1449 1449 1451 1452 1453 1454 1454 1455 1455 1456 1458 1460 1462 1464 1465 1466 1466 1468 1469 1470 1471 1472 1472 1470 1469 1470 1470 1469 1467 1465 1464 1460 1456 1454 1452 1449 1446 1443
1434 1435 1437 1439 1439 1440 1441 1441 1443 1445 1446 1447 1448 1448 1447 1449 1451 1453 1456 1457 1459 1460 1462 1461 1462 1465 1466 1463 1462 1463 1462 1462 1460 1459 1457 1455 1454 1452 1449 1448 1445 1444 1442
1424 1425 1428 1429 1428 1430 1427 1433 1434 1434 1435 1436 1438 1439 1441 1441 1445 1445 1449 1450 1453 1453 1452 1453 1454 1455 1455 1457 1456 1456 1456 1455 1454 1453 1452 1451 1449 1448 1445 1444 1444 1442 1440
1416 1416 1419 1420 1419 1422 1423 1424 1424 1425 1426 1426 1428 1430 1432 1434 1433 1434 1442 1445 1444 1442 1442 1444 1445 1446 1448 1449 1449 1449 1449 1449 1449 1448 1448 1446 1446 1446 1445 1443 1442 1440 1437
1404 1404 1404 1408 1411 1412 1412 1411 1412 1414 1414 1413 1415 1418 1423 1423 1425 1427 1431 1437 1437 1437 1435 1438 1439 1441 1443 1443 1443 1443 1443 1443 1444 1444 1444 1444 1445 1445 1443 1441 1440 1437 1434